| time (UTC) | temp F | wind direction | speed knots | gust knots | rain 1hr in | rain 24hr in | rain mn in | humidity % | barometer mb |
| 20260510091604 | 54 | 355 | 8.7 | 20.9 | 0.00 | 0.00 | 0.00 | 78 | 1015.8 |
| 20260510090105 | 53 | 17 | 10.4 | 23.5 | 0.00 | 0.00 | 0.00 | 79 | 1015.9 |
| 20260510084602 | 53 | 9 | 11.3 | 19.1 | 0.00 | 0.00 | 0.00 | 80 | 1016.0 |
| 20260510083101 | 52 | 11 | 7.8 | 19.1 | 0.00 | 0.00 | 0.00 | 81 | 1016.0 |
| 20260510081600 | 52 | 350 | 9.6 | 20.0 | 0.00 | 0.00 | 0.00 | 82 | 1016.2 |
| 20260510074559 | 51 | 340 | 8.7 | 19.1 | 0.00 | 0.00 | 0.00 | 84 | 1016.2 |
| 20260510073057 | 50 | 53 | 8.7 | 21.7 | 0.00 | 0.00 | 0.00 | 84 | 1016.0 |
| 20260510071559 | 50 | 21 | 7.8 | 20.0 | 0.00 | 0.00 | 0.00 | 84 | 1016.0 |
| 20260510070107 | 50 | 355 | 9.6 | 19.1 | 0.00 | 0.00 | 0.00 | 84 | 1016.2 |
| 20260510064610 | 50 | 62 | 8.7 | 20.0 | 0.00 | 0.00 | 0.00 | 84 | 1016.3 |
| 20260510063057 | 49 | 15 | 8.7 | 17.4 | 0.00 | 0.00 | 0.00 | 85 | 1016.5 |
| 20260510061555 | 49 | 336 | 7.8 | 15.6 | 0.00 | 0.00 | 0.00 | 86 | 1016.4 |
| 20260510060054 | 49 | 355 | 7.0 | 18.2 | 0.00 | 0.00 | 0.00 | 86 | 1016.2 |
| 20260510054602 | 49 | 9 | 7.8 | 16.5 | 0.00 | 0.00 | 0.00 | 87 | 1016.2 |
| 20260510053057 | 49 | 5 | 7.0 | 20.9 | 0.00 | 0.00 | 0.00 | 87 | 1016.3 |
| 20260510051605 | 49 | 40 | 7.0 | 16.5 | 0.00 | 0.00 | 0.00 | 87 | 1016.3 |
| 20260510044609 | 48 | 355 | 7.0 | 16.5 | 0.00 | 0.00 | 0.00 | 88 | 1016.5 |
| 20260510043057 | 48 | 351 | 7.0 | 17.4 | 0.00 | 0.00 | 0.00 | 88 | 1016.3 |
| 20260510041607 | 49 | 5 | 8.7 | 15.6 | 0.00 | 0.00 | 0.00 | 88 | 1016.3 |
| 20260510040057 | 49 | 336 | 7.8 | 19.1 | 0.00 | 0.00 | 0.00 | 87 | 1016.2 |
| 20260510034604 | 49 | 19 | 7.8 | 16.5 | 0.00 | 0.00 | 0.00 | 88 | 1016.2 |
| 20260510033059 | 50 | 10 | 8.7 | 14.8 | 0.00 | 0.00 | 0.00 | 87 | 1016.3 |
| 20260510031604 | 50 | 18 | 7.0 | 15.6 | 0.00 | 0.00 | 0.00 | 87 | 1016.4 |
| 20260510030105 | 50 | 30 | 6.1 | 12.2 | 0.00 | 0.00 | 0.00 | 86 | 1016.4 |
| 20260510024557 | 50 | 355 | 6.1 | 13.0 | 0.00 | 0.00 | 0.00 | 85 | 1016.7 |
| 20260510023056 | 50 | 5 | 6.1 | 13.9 | 0.00 | 0.00 | 0.00 | 84 | 1016.7 |
| 20260510021557 | 50 | 17 | 6.1 | 15.6 | 0.00 | 0.00 | 0.00 | 83 | 1016.8 |
| 20260510020055 | 50 | 5 | 7.0 | 14.8 | 0.00 | 0.00 | 0.00 | 83 | 1016.6 |
| 20260510014559 | 50 | 32 | 6.1 | 14.8 | 0.00 | 0.00 | 0.00 | 82 | 1016.8 |
| 20260510013100 | 50 | 350 | 5.2 | 17.4 | 0.00 | 0.00 | 0.00 | 82 | 1016.7 |
| 20260510011557 | 50 | 24 | 6.1 | 13.0 | 0.00 | 0.00 | 0.00 | 82 | 1016.9 |
| 20260510010054 | 50 | 5 | 5.2 | 12.2 | 0.00 | 0.00 | 0.00 | 82 | 1017.0 |
| 20260510004555 | 50 | 5 | 6.1 | 11.3 | 0.00 | 0.00 | 0.00 | 81 | 1017.0 |
| 20260510003101 | 50 | 18 | 5.2 | 12.2 | 0.00 | 0.00 | 0.00 | 81 | 1017.1 |
| 20260510001556 | 50 | 338 | 5.2 | 11.3 | 0.00 | 0.00 | 0.00 | 80 | 1017.1 |
| 20260510000111 | 50 | 78 | 6.1 | 11.3 | 0.00 | 0.00 | 0.00 | 79 | 1017.2 |
| 20260509234614 | 51 | 355 | 5.2 | 12.2 | 0.00 | 0.00 | 0.00 | 79 | 1017.2 |
| 20260509233058 | 51 | 27 | 5.2 | 13.0 | 0.00 | 0.00 | 0.00 | 78 | 1017.2 |
| 20260509231611 | 51 | 348 | 4.3 | 11.3 | 0.00 | 0.00 | 0.00 | 78 | 1017.5 |
| 20260509230108 | 51 | 5 | 4.3 | 11.3 | 0.00 | 0.00 | 0.00 | 77 | 1017.5 |
| 20260509224557 | 51 | 319 | 5.2 | 11.3 | 0.00 | 0.00 | 0.00 | 76 | 1017.4 |
| 20260509223057 | 51 | 33 | 6.1 | 11.3 | 0.00 | 0.00 | 0.00 | 75 | 1017.2 |
| 20260509221559 | 51 | 355 | 4.3 | 9.6 | 0.00 | 0.00 | 0.00 | 74 | 1017.4 |
| 20260509220057 | 51 | 87 | 5.2 | 11.3 | 0.00 | 0.00 | 0.00 | 72 | 1017.5 |
| 20260509214555 | 51 | 333 | 7.0 | 13.0 | 0.00 | 0.00 | 0.00 | 70 | 1017.4 |
| 20260509213056 | 52 | 360 | 7.0 | 14.8 | 0.00 | 0.00 | 0.00 | 68 | 1017.3 |
| 20260509211609 | 52 | 355 | 4.3 | 12.2 | 0.00 | 0.00 | 0.00 | 67 | 1017.3 |
| 20260509210111 | 52 | 30 | 4.3 | 13.0 | 0.00 | 0.00 | 0.00 | 65 | 1017.3 |
| 20260509204557 | 53 | 41 | 5.2 | 11.3 | 0.00 | 0.00 | 0.00 | 64 | 1017.2 |
| 20260509203100 | 53 | 19 | 5.2 | 13.0 | 0.00 | 0.00 | 0.00 | 65 | 1017.2 |
| 20260509201602 | 54 | 19 | 4.3 | 13.0 | 0.00 | 0.00 | 0.00 | 64 | 1017.2 |
| 20260509200109 | 54 | 46 | 6.1 | 12.2 | 0.00 | 0.00 | 0.00 | 65 | 1017.1 |
| 20260509194603 | 55 | 5 | 6.1 | 13.0 | 0.00 | 0.00 | 0.00 | 64 | 1017.1 |
| 20260509193057 | 55 | 32 | 6.1 | 12.2 | 0.00 | 0.00 | 0.00 | 62 | 1017.0 |
| 20260509191556 | 56 | 11 | 5.2 | 11.3 | 0.00 | 0.00 | 0.00 | 60 | 1016.9 |
| 20260509190108 | 57 | 338 | 7.0 | 13.0 | 0.00 | 0.00 | 0.00 | 59 | 1016.7 |
| 20260509184605 | 58 | 30 | 5.2 | 11.3 | 0.00 | 0.00 | 0.00 | 58 | 1016.7 |
| 20260509183059 | 59 | 15 | 5.2 | 13.0 | 0.00 | 0.00 | 0.00 | 58 | 1016.6 |
| 20260509181603 | 60 | 355 | 4.3 | 9.6 | 0.00 | 0.00 | 0.00 | 61 | 1016.8 |
| 20260509180105 | 61 | 15 | 3.5 | 11.3 | 0.00 | 0.00 | 0.00 | 58 | 1016.7 |
| 20260509174558 | 62 | 42 | 4.3 | 12.2 | 0.00 | 0.00 | 0.00 | 59 | 1016.7 |
| 20260509173101 | 63 | 69 | 5.2 | 13.0 | 0.00 | 0.00 | 0.00 | 58 | 1016.4 |
| 20260509171557 | 64 | 355 | 4.3 | 14.8 | 0.00 | 0.00 | 0.00 | 57 | 1016.2 |
| 20260509164558 | 68 | 40 | 6.1 | 14.8 | 0.00 | 0.00 | 0.00 | 53 | 1016.5 |
| 20260509163104 | 68 | 36 | 4.3 | 13.0 | 0.00 | 0.00 | 0.00 | 54 | 1016.4 |
| 20260509161558 | 68 | 113 | 6.1 | 12.2 | 0.00 | 0.00 | 0.00 | 52 | 1016.4 |
| 20260509160058 | 69 | 51 | 7.0 | 12.2 | 0.00 | 0.00 | 0.00 | 48 | 1016.3 |
| 20260509154608 | 70 | 71 | 4.3 | 13.0 | 0.00 | 0.00 | 0.00 | 48 | 1016.4 |
| 20260509153057 | 70 | 49 | 3.5 | 11.3 | 0.00 | 0.00 | 0.00 | 50 | 1016.6 |
| 20260509151607 | 70 | 28 | 3.5 | 11.3 | 0.00 | 0.00 | 0.00 | 48 | 1017.0 |
| 20260509150110 | 70 | 61 | 5.2 | 10.4 | 0.00 | 0.00 | 0.00 | 49 | 1016.9 |
| 20260509144601 | 70 | 123 | 4.3 | 11.3 | 0.00 | 0.00 | 0.00 | 48 | 1017.1 |
| 20260509143106 | 70 | 80 | 5.2 | 11.3 | 0.00 | 0.00 | 0.00 | 49 | 1016.8 |
| 20260509141557 | 70 | 83 | 6.1 | 13.0 | 0.00 | 0.00 | 0.00 | 49 | 1016.7 |
| 20260509140104 | 71 | 59 | 3.5 | 12.2 | 0.00 | 0.00 | 0.00 | 49 | 1016.6 |
| 20260509134558 | 71 | 76 | 4.3 | 14.8 | 0.00 | 0.00 | 0.00 | 50 | 1016.5 |
| 20260509133106 | 70 | 15 | 6.1 | 13.0 | 0.00 | 0.00 | 0.00 | 50 | 1016.8 |
| 20260509131556 | 70 | 54 | 6.1 | 12.2 | 0.00 | 0.00 | 0.00 | 50 | 1016.8 |
| 20260509130059 | 70 | 57 | 4.3 | 13.9 | 0.00 | 0.00 | 0.00 | 50 | 1016.9 |
| 20260509124600 | 69 | 5 | 6.1 | 13.9 | 0.00 | 0.00 | 0.00 | 52 | 1016.8 |
| 20260509123104 | 70 | 49 | 4.3 | 13.9 | 0.00 | 0.00 | 0.00 | 52 | 1017.0 |
| 20260509121601 | 70 | 327 | 5.2 | 13.0 | 0.00 | 0.00 | 0.00 | 52 | 1017.1 |
| 20260509120104 | 70 | 341 | 5.2 | 13.0 | 0.00 | 0.00 | 0.00 | 54 | 1017.3 |
| 20260509114605 | 70 | 53 | 4.3 | 14.8 | 0.00 | 0.00 | 0.00 | 54 | 1017.6 |
| 20260509113106 | 69 | 96 | 4.3 | 12.2 | 0.00 | 0.00 | 0.00 | 55 | 1017.7 |
| 20260509111556 | 68 | 44 | 3.5 | 9.6 | 0.00 | 0.00 | 0.00 | 57 | 1017.9 |
| 20260509110056 | 68 | 54 | 6.1 | 13.0 | 0.00 | 0.00 | 0.00 | 58 | 1018.0 |
| 20260509104554 | 68 | 29 | 2.6 | 12.2 | 0.00 | 0.00 | 0.00 | 59 | 1018.0 |
| 20260509103055 | 68 | 53 | 4.3 | 10.4 | 0.00 | 0.00 | 0.00 | 58 | 1018.1 |
| 20260509101558 | 68 | 85 | 3.5 | 11.3 | 0.00 | 0.00 | 0.00 | 57 | 1018.2 |
| 20260509100056 | 67 | 80 | 5.2 | 10.4 | 0.00 | 0.00 | 0.00 | 58 | 1018.2 |
| 20260509094601 | 68 | 57 | 3.5 | 13.0 | 0.00 | 0.00 | 0.00 | 60 | 1018.1 |
| 20260509093059 | 67 | 84 | 3.5 | 11.3 | 0.00 | 0.00 | 0.00 | 62 | 1018.2 |